Tracking 28794 objects as of 20-Apr-2024
HD Live streaming from Space Station
objects crossing your sky now

SL-8 R/B

Track SL-8 R/B now!
10-day predictions
SL-8 R/B is classified as:


NORAD ID: 11574
Int'l Code: 1979-089B
Perigee: 748.8 km
Apogee: 772.7 km
Inclination: 74.1 °
Period: 99.9 minutes
Semi major axis: 7131 km
RCS: 5.375 m2 (large)
Launch date: October 11, 1979
Source: Commonwealth of Independent States (former USSR) (CIS)
Launch site: PLESETSK MISSILE AND SPACE COMPLEX (PKMTR)

Note: This is a ROCKET BODY
Your satellite tracking list
Your tracking list is empty




NASA's NSSDC Master Catalog

Two Line Element Set (TLE):
1 11574U 79089B   24110.62560532  .00000924  00000-0  29221-3 0  9992
2 11574  74.0677 285.7727 0016703 273.2372  86.6873 14.41477892336784
Source of the keplerian elements: AFSPC